Time,TemperatureF,DewpointF,PressureIn,WindDirection,WindDirectionDegrees,WindSpeedMPH,WindSpeedGustMPH,Humidity,HourlyPrecipIn,Conditions,Clouds,dailyrainin,SoftwareType,DateUTC
2013-02-14 00:16:00,20.4,2.0,30.10,WSW,242,0.0,1.0,45,0.00,,,0.00,weatherlink.com 1.10,2013-02-14 07:16:00,
2013-02-14 00:29:00,20.3,2.0,30.10,WSW,242,0.0,2.0,45,0.00,,,0.00,weatherlink.com 1.10,2013-02-14 07:29:00,
2013-02-14 00:44:00,20.5,2.0,30.10,SSW,199,1.0,5.0,44,0.00,,,0.00,weatherlink.com 1.10,2013-02-14 07:44:00,
2013-02-14 00:59:00,21.1,2.0,30.10,West,260,0.0,5.0,44,0.00,,,0.00,weatherlink.com 1.10,2013-02-14 07:59:00,
2013-02-14 01:15:00,20.9,2.0,30.09,West,261,0.0,7.0,43,0.00,,,0.00,weatherlink.com 1.10,2013-02-14 08:15:00,
2013-02-14 01:30:00,20.8,3.0,30.09,WSW,258,0.0,4.0,46,0.00,,,0.00,weatherlink.com 1.10,2013-02-14 08:30:00,
2013-02-14 01:45:00,21.2,2.0,30.08,West,267,0.0,6.0,44,0.00,,,0.00,weatherlink.com 1.10,2013-02-14 08:45:00,
2013-02-14 02:00:00,21.3,2.0,30.08,WSW,248,0.0,5.0,44,0.00,,,0.00,weatherlink.com 1.10,2013-02-14 09:00:00,
2013-02-14 02:15:00,21.1,2.0,30.08,WSW,250,0.0,6.0,44,0.00,,,0.00,weatherlink.com 1.10,2013-02-14 09:15:00,
2013-02-14 02:30:00,20.4,2.0,30.08,WSW,248,0.0,1.0,44,0.00,,,0.00,weatherlink.com 1.10,2013-02-14 09:30:00,
2013-02-14 02:45:00,19.4,2.0,30.08,WSW,251,0.0,2.0,46,0.00,,,0.00,weatherlink.com 1.10,2013-02-14 09:45:00,
2013-02-14 03:02:00,18.5,1.0,30.07,WSW,246,0.0,2.0,47,0.00,,,0.00,weatherlink.com 1.10,2013-02-14 10:02:00,
2013-02-14 03:15:00,18.9,3.0,30.06,WSW,246,0.0,1.0,51,0.00,,,0.00,weatherlink.com 1.10,2013-02-14 10:15:00,
2013-02-14 03:30:00,18.5,4.0,30.06,WSW,246,0.0,1.0,53,0.00,,,0.00,weatherlink.com 1.10,2013-02-14 10:30:00,
2013-02-14 03:45:00,18.0,3.0,30.06,SW,224,1.0,2.0,52,0.00,,,0.00,weatherlink.com 1.10,2013-02-14 10:45:00,
2013-02-14 04:00:00,18.2,4.0,30.05,SW,224,0.0,0.0,53,0.00,,,0.00,weatherlink.com 1.10,2013-02-14 11:00:00,
2013-02-14 04:15:00,18.5,4.0,30.05,SW,223,1.0,1.0,54,0.00,,,0.00,weatherlink.com 1.10,2013-02-14 11:15:00,
2013-02-14 04:30:00,18.0,3.0,30.05,SW,222,0.0,0.0,52,0.00,,,0.00,weatherlink.com 1.10,2013-02-14 11:30:00,
2013-02-14 04:45:00,18.3,3.0,30.06,SW,223,0.0,1.0,51,0.00,,,0.00,weatherlink.com 1.10,2013-02-14 11:45:00,
2013-02-14 05:03:00,18.8,3.0,30.06,SW,222,0.0,1.0,50,0.00,,,0.00,weatherlink.com 1.10,2013-02-14 12:03:00,
2013-02-14 05:15:00,18.6,3.0,30.06,SW,223,0.0,1.0,50,0.00,,,0.00,weatherlink.com 1.10,2013-02-14 12:15:00,
2013-02-14 05:30:00,18.1,2.0,30.06,SW,222,0.0,1.0,50,0.00,,,0.00,weatherlink.com 1.10,2013-02-14 12:30:00,
2013-02-14 05:45:00,17.9,2.0,30.06,SW,222,0.0,0.0,51,0.00,,,0.00,weatherlink.com 1.10,2013-02-14 12:45:00,
2013-02-14 06:00:00,18.0,3.0,30.06,SW,223,0.0,0.0,53,0.00,,,0.00,weatherlink.com 1.10,2013-02-14 13:00:00,
2013-02-14 06:15:00,18.0,3.0,30.06,SW,222,0.0,0.0,53,0.00,,,0.00,weatherlink.com 1.10,2013-02-14 13:15:00,
2013-02-14 06:30:00,17.6,5.0,30.06,SW,223,0.0,1.0,57,0.00,,,0.00,weatherlink.com 1.10,2013-02-14 13:30:00,
2013-02-14 06:46:00,17.3,5.0,30.06,SW,223,0.0,1.0,60,0.00,,,0.00,weatherlink.com 1.10,2013-02-14 13:46:00,
2013-02-14 07:01:00,16.8,6.0,30.06,SSE,161,0.0,2.0,62,0.00,,,0.00,weatherlink.com 1.10,2013-02-14 14:01:00,
2013-02-14 07:16:00,16.6,6.0,30.07,SSE,164,0.0,0.0,63,0.00,,,0.00,weatherlink.com 1.10,2013-02-14 14:16:00,
2013-02-14 07:31:00,16.7,6.0,30.08,SSE,164,0.0,1.0,64,0.00,,,0.00,weatherlink.com 1.10,2013-02-14 14:31:00,
2013-02-14 07:46:00,18.2,7.0,30.07,SSE,161,0.0,2.0,63,0.00,,,0.00,weatherlink.com 1.10,2013-02-14 14:46:00,
2013-02-14 08:02:00,19.9,8.0,30.08,NW,309,0.0,3.0,59,0.00,,,0.00,weatherlink.com 1.10,2013-02-14 15:02:00,
2013-02-14 08:16:00,21.5,9.0,30.08,North,355,3.0,5.0,58,0.00,,,0.00,weatherlink.com 1.10,2013-02-14 15:16:00,
2013-02-14 08:31:00,22.7,9.0,30.09,NW,317,4.0,4.0,56,0.00,,,0.00,weatherlink.com 1.10,2013-02-14 15:31:00,
2013-02-14 08:47:00,24.1,9.0,30.10,WNW,298,4.0,12.0,52,0.00,,,0.00,weatherlink.com 1.10,2013-02-14 15:47:00,
2013-02-14 09:02:00,25.3,9.0,30.11,West,281,6.0,11.0,50,0.00,,,0.00,weatherlink.com 1.10,2013-02-14 16:02:00,
2013-02-14 09:16:00,25.8,7.0,30.11,West,276,9.0,15.0,45,0.00,,,0.00,weatherlink.com 1.10,2013-02-14 16:16:00,
2013-02-14 09:31:00,26.7,8.0,30.09,WNW,287,0.0,12.0,45,0.00,,,0.00,weatherlink.com 1.10,2013-02-14 16:31:00,
2013-02-14 09:46:00,27.5,7.0,30.09,WSW,254,4.0,16.0,41,0.00,,,0.00,weatherlink.com 1.10,2013-02-14 16:46:00,
2013-02-14 10:02:00,28.3,6.0,30.09,West,275,6.0,13.0,39,0.00,,,0.00,weatherlink.com 1.10,2013-02-14 17:02:00,
2013-02-14 10:16:00,28.2,6.0,30.07,West,281,5.0,12.0,39,0.00,,,0.00,weatherlink.com 1.10,2013-02-14 17:16:00,
2013-02-14 10:31:00,28.1,7.0,30.08,WSW,248,6.0,14.0,41,0.00,,,0.00,weatherlink.com 1.10,2013-02-14 17:31:00,
2013-02-14 10:46:00,29.3,7.0,30.09,SW,231,0.0,14.0,39,0.00,,,0.00,weatherlink.com 1.10,2013-02-14 17:46:00,
2013-02-14 11:02:00,29.8,6.0,30.09,WNW,298,7.0,12.0,37,0.00,,,0.00,weatherlink.com 1.10,2013-02-14 18:02:00,
2013-02-14 11:17:00,30.0,7.0,30.09,West,259,4.0,12.0,38,0.00,,,0.00,weatherlink.com 1.10,2013-02-14 18:17:00,
2013-02-14 11:32:00,30.4,9.0,30.10,SW,215,6.0,11.0,40,0.00,,,0.00,weatherlink.com 1.10,2013-02-14 18:32:00,
2013-02-14 11:47:00,29.8,8.0,30.09,NW,318,4.0,10.0,40,0.00,,,0.00,weatherlink.com 1.10,2013-02-14 18:47:00,
2013-02-14 12:02:00,30.2,8.0,30.09,NW,314,5.0,11.0,39,0.00,,,0.00,weatherlink.com 1.10,2013-02-14 19:02:00,
2013-02-14 12:17:00,29.9,7.0,30.09,West,280,5.0,13.0,38,0.00,,,0.00,weatherlink.com 1.10,2013-02-14 19:17:00,
2013-02-14 12:32:00,30.1,8.0,30.08,West,272,2.0,16.0,39,0.00,,,0.00,weatherlink.com 1.10,2013-02-14 19:32:00,
2013-02-14 12:47:00,29.9,8.0,30.07,WNW,294,4.0,16.0,40,0.00,,,0.00,weatherlink.com 1.10,2013-02-14 19:47:00,
2013-02-14 13:04:00,29.4,9.0,30.08,WSW,249,3.0,12.0,43,0.00,,,0.00,weatherlink.com 1.10,2013-02-14 20:04:00,
2013-02-14 13:17:00,29.9,10.0,30.08,WSW,252,2.0,11.0,43,0.00,,,0.00,weatherlink.com 1.10,2013-02-14 20:17:00,
2013-02-14 13:32:00,31.0,9.0,30.08,WNW,290,0.0,10.0,39,0.00,,,0.00,weatherlink.com 1.10,2013-02-14 20:32:00,
2013-02-14 13:47:00,31.1,9.0,30.08,West,263,2.0,10.0,40,0.00,,,0.00,weatherlink.com 1.10,2013-02-14 20:47:00,
2013-02-14 14:02:00,29.9,9.0,30.08,West,274,5.0,7.0,41,0.00,,,0.00,weatherlink.com 1.10,2013-02-14 21:02:00,
2013-02-14 14:17:00,29.3,7.0,30.08,NW,309,4.0,9.0,39,0.00,,,0.00,weatherlink.com 1.10,2013-02-14 21:17:00,
2013-02-14 14:32:00,29.3,4.0,30.08,West,275,0.0,10.0,34,0.00,,,0.00,weatherlink.com 1.10,2013-02-14 21:32:00,
2013-02-14 14:47:00,30.1,4.0,30.08,West,279,0.0,10.0,33,0.00,,,0.00,weatherlink.com 1.10,2013-02-14 21:47:00,
2013-02-14 15:02:00,29.1,4.0,30.09,West,269,2.0,14.0,34,0.00,,,0.00,weatherlink.com 1.10,2013-02-14 22:02:00,
2013-02-14 15:17:00,29.5,2.0,30.10,WSW,246,2.0,13.0,31,0.00,,,0.00,weatherlink.com 1.10,2013-02-14 22:17:00,
2013-02-14 15:34:00,29.5,3.0,30.10,West,273,0.0,10.0,32,0.00,,,0.00,weatherlink.com 1.10,2013-02-14 22:34:00,
2013-02-14 15:47:00,28.9,7.0,30.11,NW,313,3.0,15.0,40,0.00,,,0.00,weatherlink.com 1.10,2013-02-14 22:47:00,
2013-02-14 16:02:00,28.0,7.0,30.11,WSW,254,7.0,10.0,41,0.00,,,0.00,weatherlink.com 1.10,2013-02-14 23:02:00,
2013-02-14 16:17:00,26.7,0.0,30.11,West,277,8.0,15.0,32,0.00,,,0.00,weatherlink.com 1.10,2013-02-14 23:17:00,
2013-02-14 16:32:00,25.7,1.0,30.13,WSW,253,4.0,13.0,35,0.00,,,0.00,weatherlink.com 1.10,2013-02-14 23:32:00,
2013-02-14 16:47:00,25.2,3.0,30.12,West,280,4.0,15.0,39,0.00,,,0.00,weatherlink.com 1.10,2013-02-14 23:47:00,
2013-02-14 17:02:00,24.6,3.0,30.14,WSW,254,2.0,14.0,39,0.00,,,0.00,weatherlink.com 1.10,2013-02-15 00:02:00,
2013-02-14 17:17:00,23.8,4.0,30.14,WNW,285,2.0,10.0,43,0.00,,,0.00,weatherlink.com 1.10,2013-02-15 00:17:00,
2013-02-14 17:32:00,23.1,5.0,30.15,West,273,0.0,8.0,46,0.00,,,0.00,weatherlink.com 1.10,2013-02-15 00:32:00,
2013-02-14 17:47:00,22.3,6.0,30.15,West,263,0.0,6.0,49,0.00,,,0.00,weatherlink.com 1.10,2013-02-15 00:47:00,
2013-02-14 18:03:00,21.5,6.0,30.16,West,278,0.0,4.0,51,0.00,,,0.00,weatherlink.com 1.10,2013-02-15 01:03:00,
2013-02-14 18:18:00,20.2,5.0,30.16,WSW,250,0.0,4.0,53,0.00,,,0.00,weatherlink.com 1.10,2013-02-15 01:18:00,
2013-02-14 18:33:00,19.2,6.0,30.17,WSW,242,0.0,5.0,57,0.00,,,0.00,weatherlink.com 1.10,2013-02-15 01:33:00,
2013-02-14 18:48:00,18.6,5.0,30.17,WSW,246,0.0,5.0,56,0.00,,,0.00,weatherlink.com 1.10,2013-02-15 01:48:00,
2013-02-14 19:03:00,18.2,4.0,30.18,WSW,257,0.0,3.0,55,0.00,,,0.00,weatherlink.com 1.10,2013-02-15 02:03:00,
2013-02-14 19:18:00,17.9,3.0,30.18,WSW,257,0.0,2.0,53,0.00,,,0.00,weatherlink.com 1.10,2013-02-15 02:18:00,
2013-02-14 19:33:00,17.3,2.0,30.18,WNW,294,1.0,3.0,51,0.00,,,0.00,weatherlink.com 1.10,2013-02-15 02:33:00,
2013-02-14 19:49:00,17.5,3.0,30.18,WSW,250,0.0,5.0,52,0.00,,,0.00,weatherlink.com 1.10,2013-02-15 02:49:00,
2013-02-14 20:03:00,17.7,3.0,30.18,West,273,0.0,7.0,52,0.00,,,0.00,weatherlink.com 1.10,2013-02-15 03:03:00,
2013-02-14 20:18:00,17.2,3.0,30.17,WSW,238,3.0,5.0,53,0.00,,,0.00,weatherlink.com 1.10,2013-02-15 03:18:00,
2013-02-14 20:33:00,16.5,2.0,30.17,WSW,258,0.0,5.0,53,0.00,,,0.00,weatherlink.com 1.10,2013-02-15 03:33:00,
2013-02-14 20:48:00,16.4,1.0,30.18,WSW,254,0.0,3.0,51,0.00,,,0.00,weatherlink.com 1.10,2013-02-15 03:48:00,
2013-02-14 21:03:00,16.2,1.0,30.19,WSW,246,3.0,3.0,51,0.00,,,0.00,weatherlink.com 1.10,2013-02-15 04:03:00,
2013-02-14 21:18:00,16.4,1.0,30.20,NW,322,0.0,4.0,51,0.00,,,0.00,weatherlink.com 1.10,2013-02-15 04:18:00,
2013-02-14 21:33:00,16.3,1.0,30.20,WSW,244,0.0,2.0,52,0.00,,,0.00,weatherlink.com 1.10,2013-02-15 04:33:00,
2013-02-14 21:48:00,16.2,1.0,30.20,WSW,244,0.0,0.0,52,0.00,,,0.00,weatherlink.com 1.10,2013-02-15 04:48:00,
2013-02-14 22:03:00,16.5,2.0,30.21,WSW,244,0.0,1.0,52,0.00,,,0.00,weatherlink.com 1.10,2013-02-15 05:03:00,
2013-02-14 22:18:00,17.4,2.0,30.21,WSW,246,0.0,1.0,52,0.00,,,0.00,weatherlink.com 1.10,2013-02-15 05:18:00,
2013-02-14 22:33:00,17.5,3.0,30.21,WSW,245,0.0,1.0,53,0.00,,,0.00,weatherlink.com 1.10,2013-02-15 05:33:00,
2013-02-14 22:48:00,17.4,3.0,30.21,WSW,242,0.0,0.0,53,0.00,,,0.00,weatherlink.com 1.10,2013-02-15 05:48:00,
2013-02-14 23:03:00,17.0,3.0,30.20,SE,136,0.0,3.0,54,0.00,,,0.00,weatherlink.com 1.10,2013-02-15 06:03:00,
2013-02-14 23:19:00,15.4,4.0,30.21,SE,142,0.0,3.0,60,0.00,,,0.00,weatherlink.com 1.10,2013-02-15 06:19:00,
2013-02-14 23:35:00,15.9,3.0,30.21,SW,232,0.0,10.0,56,0.00,,,0.00,weatherlink.com 1.10,2013-02-15 06:35:00,
2013-02-14 23:48:00,17.0,3.0,30.21,WSW,242,2.0,6.0,55,0.00,,,0.00,weatherlink.com 1.10,2013-02-15 06:48:00,